AEOLUS (43600 NORAD) Tracking and Keplerian Element Data

This shows tracking and keplerian element data for the satellite.

Feedback or suggestion? Click here.




ElementValue
Catalog43600
NameAEOLUS
Epoch Orbit4348
Epoch Day144.18807471
Epoch Year2019
RAAN151.393
Inclination96.7136
Eccentricity0.0006625
Argument of Perigee136.3914
Mean Anonmoly223.8061
Mean Motion15.86730994
Decay Rate-1.37E-06
L11 43600U 18066A 19144.18807471 -.00000137 00000-0 00000+0 0 9990
L22 43600 96.7136 151.3930 0006625 136.3914 223.8061 15.86730994 43488

Live tracking and technical data element details for AEOLUS (NORAD 43600). AEOLUS can be tracked NOW for your location showing map with azimuth and elevation plus other details from your city location.

Track the satellite on the map from your city or location and see movement details for azimuth, elevation, latitude, longitude, range, height, and movement on the map or in text.







IsCatalogInMostPopularTable: catalog: 43600, numindb: 112
Update: records affected: 1



GetName: 43600 AEOLUS

Hit Count: updated at: Fri, 24 May 2019 21:32:52 GMT